Location: Duncanville
(32.6518°N, 96.9083°W)
Time: 11:16:39
(UTC+00:00)

COSMOS 2455 - Pass Details

Date: 11 February 2026
Orbit: 899 x 909 km, 67.1° (Epoch: 8 March)

Event Time Altitude Azimuth Distance (km) Brightness Sun altitude
Exits shadow 12:12:54 13° 247° (WSW) 2,345 4.5 -13.5°
Maximum altitude 12:17:19 30° 303° (WNW) 1,564 3.6 -12.5°
Drops below altitude 10° 12:22:33 10° 4° (N) 2,595 5.2 -11.5°
Sets 12:25:24 0° 15° (NNE) 3,540 6.0 -10.9°
